Location: Newark
(55.7083°N, 13.1992°E)
Time: 01:11:45
(UTC+00:00)

N. Korean satellite - Pass Details

Date: 27 January 2020
Orbit: 456 x 505 km, 97.2° (Epoch: 27 February)

Event Time Altitude Azimuth Distance (km) Brightness Sun altitude
Rises 06:22:22 0° 4° (N) 2,537 10.0 -6.9°
Reaches altitude 10° 06:24:46 10° 348° (NNW) 1,663 8.9 -6.5°
Maximum altitude 06:27:28 21° 299° (WNW) 1,154 7.9 -6.2°
Drops below altitude 10° 06:30:11 10° 250° (WSW) 1,675 8.9 -5.8°
Sets 06:32:37 0° 234° (SW) 2,561 9.9 -5.5°
